Location: T. Spence Memorial Observatory
(32.7356°N, 82.2098°W)
Time: 23:28:19
(UTC-05:00)

Daily predictions for brighter satellites

Satellite Brightness Start Highest point End
(mag) Time Altitude Azimuth Time Altitude Azimuth Time Altitude Azimuth
H-2A R/B 3.2 18:03:22 10° WSW 18:05:46 37° S 18:12:57 10° ESE
Cosmos 2263 4.2 18:07:59 10° NNW 18:13:46 81° ENE 18:19:28 10° SSE
Cosmos 1656 Rocket 4.4 18:10:18 10° N 18:15:01 29° ENE 18:19:47 10° ESE
SKYMED 2 3.8 18:11:23 10° NNE 18:15:37 52° E 18:19:50 10° S
CSL-04 Rocket 4.1 18:11:23 10° S 18:16:55 72° WSW 18:22:27 10° NNW
Cosmos 2369 Rocket 2.8 18:11:21 10° NNW 18:16:59 66° WSW 18:22:36 10° S
YAOGAN 1 2.7 18:13:54 10° SSE 18:18:05 52° ENE 18:22:18 10° N
Cosmos 2341 Rocket 4.3 18:14:06 10° N 18:20:23 76° W 18:26:41 10° S
ERS-2 3.8 18:18:26 10° ESE 18:20:33 15° ENE 18:22:41 10° NNE
Meteor 2-16 Rocket 4.4 18:15:16 10° N 18:21:24 81° E 18:27:31 10° S
Cosmos 1300 2.6 18:18:52 10° N 18:22:41 65° E 18:26:27 10° SSE
Cosmos 1943 Rocket 2.2 18:18:48 10° NNW 18:24:24 88° WSW 18:29:55 10° SSE
IRAS Rocket 4.4 18:19:24 10° SSE 18:24:55 86° WSW 18:30:31 10° NNW
SL-24 R/B - RUBIN 2 4.4 18:24:34 10° N 18:28:27 29° NE 18:32:11 10° ESE
Cosmos 2058 4.0 18:27:38 10° SE 18:31:04 25° E 18:34:31 10° NE
SL-14 R/B 4.2 18:28:48 10° SSW 18:32:41 52° W 18:36:34 10° N
Ariane Rocket 3.8 18:28:12 10° S 18:33:09 57° W 18:38:08 10° NNW
Cosmos 2221 3.6 18:30:52 10° NNW 18:35:05 49° W 18:39:19 10° SSW
CZ-2C R/B 4.4 18:31:24 10° N 18:36:00 57° WNW 18:40:30 10° SSW
OAO 3 Rocket 3.2 18:35:20 10° WNW 18:39:59 70° N 18:43:58 14° E
FENGYUN 3A 3.7 18:35:39 10° SSE 18:40:52 58° ENE 18:46:08 10° N
Cosmos 371 Rocket 3.9 18:37:46 10° SSE 18:42:06 35° E 18:46:27 10° NE
Cosmos 44 4.1 18:38:02 10° SW 18:42:07 44° WNW 18:46:19 10° NNE
ASTRO E2 2.8 18:42:06 10° WSW 18:46:04 68° S 18:48:58 18° E
CZ-4 R/B 3.0 18:44:13 10° S 18:48:12 41° W 18:52:13 10° NNW
Cosmos 1408 Rocket 3.7 18:45:39 10° S 18:49:55 75° W 18:54:14 10° N
Cosmos 2151 3.4 18:46:05 10° SSE 18:50:04 41° E 18:54:05 10° NNE
Cosmos 1515 Rocket 4.2 18:51:09 10° NNE 18:55:01 31° E 18:58:51 10° SE
SPOT 3 Rocket 3.5 18:50:31 10° SSE 18:55:35 65° ENE 19:00:42 10° N
Meteor 1-11 4.3 18:55:37 10° S 19:01:11 83° W 19:06:50 10° N
Cosmos 1777 Rocket 3.9 18:57:09 10° NNW 19:02:24 71° ENE 19:07:38 10° SSE
Cosmos 1500 Rocket 3.7 18:58:42 10° SSE 19:03:00 50° E 19:07:19 10° NNE
COSMO-SKYMED 1 4.0 18:59:33 10° N 19:03:35 39° WNW 19:07:36 10° SW
Meteor 1-27 4.2 18:58:19 10° N 19:04:01 63° E 19:09:45 10° SSE
H-2A R/B 2.9 19:02:47 10° SSE 19:06:24 46° ENE 19:10:06 10° N
Cosmos 1346 Rocket 2.6 19:02:47 10° N 19:06:42 76° E 19:10:33 10° SSE
COSMOS 2406 3.2 19:01:18 10° SSW 19:07:02 88° WNW 19:12:46 10° NNE
USA 81 4.1 19:02:22 10° SSE 19:07:31 58° E 19:12:41 10° NNE
Meteor 2-15 4.5 19:05:23 10° S 19:11:20 57° E 19:17:17 10° NNE
Cosmos 2208 Rocket 4.0 19:11:12 10° S 19:16:18 57° ESE 19:19:41 22° NNE
FengYun 1-2 T 4.2 19:11:49 10° SSE 19:17:21 60° ENE 19:22:51 10° N
Hubble Space Telescope 2.8 19:14:53 10° SSW 19:17:21 15° SSE 19:18:08 15° SE
Cosmos 1743 Rocket 3.6 19:13:17 10° S 19:17:39 78° W 19:22:01 10° N
Cosmos 2228 Rocket 3.0 19:13:51 10° N 19:18:26 68° E 19:22:58 10° SSE
Cosmos 1833 Rocket 4.4 19:15:43 10° SE 19:17:22 15° SE 19:17:22 15° SE
Cosmos 1455 2.0 19:16:42 10° N 19:20:31 68° E 19:24:17 10° SSE
Cosmos 1328 Rocket 3.8 19:22:14 10° NNW 19:26:33 67° W 19:30:50 10° S
Cosmos 468 Rocket 4.1 19:24:26 10° S 19:29:19 47° ESE 19:29:53 45° E
Cosmos 1241 Rocket 4.4 19:26:09 10° NNW 19:32:18 61° ENE 19:36:32 21° SE
Tiangong 1 3.7 19:31:37 10° NW 19:31:42 11° NW 19:31:42 11° NW
GEOS 3 Rocket 4.5 19:35:23 32° NNE 19:35:23 32° NNE 19:39:21 10° NNW
ALOS 4.2 19:32:00 10° SSW 19:36:07 31° W 19:40:15 10° NW
TIMED 4.3 19:33:15 10° NNW 19:37:38 84° ENE 19:40:23 22° SSE
Cosmos 2098 Rocket 4.4 19:32:21 10° NNW 19:37:58 63° W 19:44:47 10° S
Meteor 2-15 Rocket 4.3 19:32:05 10° S 19:38:12 80° E 19:44:20 10° N
Lacrosse 5 1.8 19:37:27 10° SSW 19:42:28 62° SE 19:42:42 62° ESE
Cosmos 1821 Rocket 3.8 19:40:35 10° N 19:46:47 82° E 19:53:02 10° S
NOSS 3-4 (A) 4.1 19:39:36 10° NW 19:46:48 72° WSW 19:54:28 10° SSE
NOSS 3-4 (C) 4.1 19:39:42 10° NW 19:46:55 73° WSW 19:54:36 10° SSE
Delta 168 4.4 19:40:41 10° WSW 19:47:28 39° S 19:48:44 35° SSE
Cosmos 1535 Rocket 4.3 19:41:45 10° N 19:47:51 70° E 19:53:55 10° SSE
ERS-2 4.3 19:50:51 10° SSW 19:53:57 26° W 19:57:05 10° NW
SEDSat Delta rocket 3.7 19:47:35 10° W 19:54:15 81° S 19:55:15 64° ESE
Cosmos 1151 Rocket 4.2 19:57:10 10° NNW 20:01:19 42° W 20:05:25 10° SSW
CZ-4C R/B 2.2 20:05:15 10° SSW 20:09:27 65° SW 20:09:27 65° SW
ISS -0.5 20:10:15 10° SW 20:10:21 11° SW 20:10:21 11° SW
Cosmos 1934 Rocket 4.3 20:18:20 10° NNW 20:24:39 67° W 20:30:55 10° S
Cosmos 2082 Rocket 3.8 20:30:16 10° SSW 20:32:30 25° SSW 20:32:30 25° SSW
